Minneapolis Crystal, MN

6:13 PM CDT on June 20, 2018 (GMT -0500)
Crystal

Weather History for KMIC - August, 2017

Change the Weather History Date:

Sunday, August 13, 2017

  Actual Average Record
Temperature  
Mean Temperature 62 °F -  
Max Temperature 70 °F 77 °F 88 °F (2003)
Min Temperature 55 °F 57 °F 46 °F (2004)
Degree Days  
Heating Degree Days 2    
Growing Degree Days 12 (Base 50)    
Moisture  
Dew Point 56 °F    
Average Humidity 76    
Maximum Humidity 90    
Minimum Humidity 55    
Precipitation  
Precipitation 0.54 in - - ()
Sea Level Pressure  
Sea Level Pressure 29.95 in    
Wind  
Wind Speed 5 mph (SE)    
Max Wind Speed 20 mph    
Max Gust Speed 26 mph    
Visibility 9 miles    
Events Rain , Thunderstorm    
Averages and records for this station are not official NWS values.
T = Trace of Precipitation, MM = Missing Value Source: NWS Daily Summary

Daily Weather History Graph

Daily Weather History Graph

Search for Another Location

Airport or City:

Astronomy

Aug. 13, 2017 Rise Set
Actual Time 6:12 AM CDT 8:22 PM CDT
Civil Twilight 5:40 AM CDT 8:54 PM CDT
Nautical Twilight 5:00 AM CDT 9:34 PM CDT
Astronomical Twilight 4:16 AM CDT 10:18 PM CDT
Moon 11:40 PM CDT (8/13) 12:29 PM CDT (8/13)
Length of Visible Light 15h 13m
Length of Day
14h 09m
Waning Gibbous, 65% of the Moon is Illuminated
Aug 13
Waning Gibbous
Aug 14
Last Quarter
Aug 21
New
Aug 29
First Quarter
Sep 6
Full

Hourly Weather History & Observations

Time (CDT) Temp. Dew Point Humidity Pressure Visibility Wind Dir Wind Speed Gust Speed Precip Events Conditions
12:53 AM 60.1 °F 52.0 °F 75% 30.05 in 10.0 mi Calm Calm - N/A   Clear
1:53 AM 57.9 °F 53.1 °F 84% 30.03 in 10.0 mi Calm Calm - N/A   Clear
2:53 AM 57.0 °F 53.1 °F 87% 30.03 in 10.0 mi Calm Calm - N/A   Clear
3:53 AM 57.9 °F 53.1 °F 84% 30.01 in 10.0 mi Calm Calm - N/A   Clear
4:53 AM 55.9 °F 52.0 °F 87% 30.01 in 10.0 mi Calm Calm - N/A   Clear
5:53 AM 60.1 °F 52.0 °F 75% 30.01 in 10.0 mi Calm Calm - N/A   Overcast
6:53 AM 61.0 °F 52.0 °F 72% 30.01 in 10.0 mi Calm Calm - N/A   Overcast
7:53 AM 62.1 °F 52.0 °F 70% 30.01 in 10.0 mi SSE 5.8 mph - 0.00 in Rain Light Rain
8:53 AM 64.0 °F 53.1 °F 67% 30.00 in 10.0 mi SSE 5.8 mph - 0.00 in   Overcast
9:53 AM 66.9 °F 53.1 °F 61% 30.00 in 10.0 mi SE 6.9 mph - N/A   Overcast
10:53 AM 68.0 °F 51.1 °F 55% 29.99 in 10.0 mi SSE 10.4 mph - N/A   Overcast
11:53 AM 66.9 °F 53.1 °F 61% 29.99 in 10.0 mi SE 4.6 mph - N/A   Overcast
12:53 PM 69.1 °F 55.9 °F 63% 29.98 in 10.0 mi South 4.6 mph - N/A   Overcast
1:53 PM 69.1 °F 57.9 °F 68% 29.98 in 10.0 mi SSE 4.6 mph - 0.00 in Rain Light Rain
2:53 PM 64.9 °F 57.9 °F 78% 29.97 in 10.0 mi SE 10.4 mph - 0.03 in Rain Light Rain
3:53 PM 66.9 °F 57.9 °F 73% 29.94 in 10.0 mi ESE 8.1 mph - 0.00 in   Overcast
4:53 PM 68.0 °F 57.0 °F 68% 29.92 in 10.0 mi ESE 11.5 mph - N/A   Mostly Cloudy
5:53 PM 70.0 °F 57.0 °F 63% 29.90 in 10.0 mi SE 10.4 mph - N/A   Overcast
6:53 PM 69.1 °F 57.9 °F 68% 29.89 in 8.0 mi SSE 5.8 mph - 0.01 in Rain Light Rain
7:53 PM 66.0 °F 60.1 °F 81% 29.87 in 8.0 mi ESE 5.8 mph - 0.05 in Rain Light Rain
8:53 PM 66.0 °F 61.0 °F 84% 29.87 in 10.0 mi SE 4.6 mph - 0.01 in Rain Light Rain
9:53 PM 66.0 °F 60.1 °F 81% 29.86 in 10.0 mi SSE 8.1 mph - 0.00 in Rain Light Rain
10:53 PM 64.9 °F 60.1 °F 84% 29.87 in 8.0 mi South 11.5 mph - 0.04 in Rain Light Rain
11:07 PM 64.0 °F 59.0 °F 84% 29.87 in 2.5 mi SSE 18.4 mph 24.2 mph 0.08 in Rain , Thunderstorm Heavy Rain
11:22 PM 63.0 °F 59.0 °F 87% 29.86 in 3.0 mi SE 13.8 mph - 0.20 in Rain , Thunderstorm Thunderstorms and Rain
11:32 PM 63.0 °F 60.1 °F 90% 29.87 in 2.0 mi SSE 19.6 mph 25.3 mph 0.29 in Rain , Thunderstorm Heavy Thunderstorms and Rain
11:43 PM 63.0 °F 60.1 °F 90% 29.87 in 3.0 mi SSE 17.3 mph 26.5 mph 0.37 in Rain Heavy Rain
11:53 PM 62.1 °F 57.9 °F 86% 29.86 in 5.0 mi SSE 16.1 mph 25.3 mph 0.40 in Rain Rain